Location: Unspecified
(49.2170°N, 0.0000°E)
Time: 19:11:58
(UTC+00:00)

Transit 4A - Pass Details

Date: 22 June 2019
Orbit: 863 x 981 km, 66.8° (Epoch: 20 August)

Event Time Altitude Azimuth Distance (km) Brightness Sun altitude
Rises 08:59:59 0° 225° (SW) 3,619 10.8 46.2°
Reaches altitude 10° 09:02:32 10° 228° (SW) 2,691 10.2 46.6°
Maximum altitude 09:08:48 65° 310° (NW) 1,069 8.7 47.5°
Drops below altitude 10° 09:15:12 10° 33° (NNE) 2,744 10.6 48.5°
Sets 09:17:50 0° 36° (NE) 3,695 11.1 48.9°
